Regional Weather Roundup
Issued by NWS

Home | Current Version | Previous Version | Text Only | Print | Product List | Glossary On
Versions: 1 2 3 4 5 6 7 8 9 10 11 12 13 14 15 16 17 18 19 20 21 22 23 24 25 26 27
000
ASPQ40 PGUM 271012
RWRPQ
WEATHER ROUNDUP FOR THE MARIANAS AND MICRONESIA
NATIONAL WEATHER SERVICE TIYAN GU
800 PM CHST MON FEB 27 2017

GUZ001>004-271100-
MARIANA ISLANDS-

CITY           SKY/WX    TMP DP  RH WIND       PRES   REMARKS
GUAM AIRPORT   PTCLDY    81  77  89 E12       29.91R
ANDERSEN AFB   MOCLDY    79  75  89 E14       29.93R
ROTA AIRPORT   MOCLDY    79  72  78 E13       29.91R
TINIAN AP      MOCLDY    79  73  83 E12       29.91R
SAIPAN AP      MOCLDY    79  73  83 E15       29.92R

$$

PMZ161-271100-
REPUBLIC OF PALAU-

CITY           SKY/WX    TMP DP  RH WIND       PRES   REMARKS
KOROR AP       CLOUDY    79  77  94 CALM      29.81R
KOROR WSO      CLOUDY    81  77  89 NE6       29.82R

$$

PMZ171>174-271100-
FEDERATED STATES OF MICRONESIA-

CITY           SKY/WX    TMP DP  RH WIND       PRES   REMARKS
YAP AIRPORT    CLOUDY    81  75  83 NE9       29.82R
CHUUK AP       CLOUDY    82  77  83 N9        29.80R HX  91
POHNPEI AP     NOT AVBL
POHNPEI WSO    CLOUDY    82  75  78 NE6       29.84R
KOSRAE AP      NOT AVBL

$$

PMZ181-271100-
REPUBLIC OF THE MARSHALL ISLANDS-

CITY           SKY/WX    TMP DP  RH WIND       PRES   REMARKS
KWAJALEIN AP   PTCLDY    82  73  74 NE18      29.83S
MAJURO AP      NOT AVBL
MAJURO WSO     NOT AVBL

$$





USA.gov is the U.S. government's official web portal to all federal, state and local government web resources and services.